AEE123 LGTS-LGAV

Flight info

Callsign AEE123
Flight time N/A
Altitude 29000
Route LEKPO UL617 SKP UM749 ROPOX
Aircraft A320/M-SDE3FGHIRWY/LB1

Departure

Time 2026-05-07 13:48
Airport Thessaloniki Macedonia International Airport (LGTS)

Arrival

Time N/A
Airport Athens Eleftherios Venizelos International Airport (LGAV)
Time Latitude Longitude Altitude Speed Heading
2026-05-07 13:17 40.52381 22.97448 17 ft 0 kts
2026-05-07 13:35 40.52382 22.97448 24 ft 1 kts
2026-05-07 13:35 40.52380 22.97442 24 ft 3 kts 298°
2026-05-07 13:36 40.52380 22.97432 27 ft 3 kts 291°
2026-05-07 13:36 40.52389 22.97425 26 ft 0 kts 135°
2026-05-07 13:42 40.52386 22.97429 24 ft 5 kts 135°
2026-05-07 13:42 40.52350 22.97471 25 ft 2 kts 138°
2026-05-07 13:42 40.52318 22.97498 25 ft 11 kts 153°
2026-05-07 13:42 40.52242 22.97531 28 ft 11 kts 155°
2026-05-07 13:43 40.52186 22.97600 25 ft 13 kts 136°
2026-05-07 13:43 40.52103 22.97696 28 ft 22 kts 149°
2026-05-07 13:43 40.52002 22.97859 26 ft 25 kts 104°
2026-05-07 13:43 40.51952 22.98071 27 ft 25 kts 104°
2026-05-07 13:44 40.51912 22.98302 27 ft 27 kts 102°
2026-05-07 13:44 40.51867 22.98544 27 ft 25 kts 103°
2026-05-07 13:44 40.51795 22.98717 28 ft 18 kts 174°
2026-05-07 13:44 40.51698 22.98664 28 ft 15 kts 202°
2026-05-07 13:45 40.51683 22.98614 28 ft 0 kts 295°
2026-05-07 13:46 40.51683 22.98613 28 ft 1 kts 295°
2026-05-07 13:46 40.51688 22.98592 28 ft 0 kts 285°
2026-05-07 13:47 40.51688 22.98588 28 ft 4 kts 285°
2026-05-07 13:48 40.51750 22.98265 28 ft 76 kts 284°
2026-05-07 13:48 40.51929 22.97309 27 ft 138 kts 284°
2026-05-07 13:48 40.52195 22.95962 445 ft 150 kts 281°
2026-05-07 13:48 40.52551 22.94659 1086 ft 156 kts 296°
2026-05-07 13:49 40.52979 22.93258 1447 ft 180 kts 283°
2026-05-07 13:49 40.53236 22.91546 1816 ft 203 kts 281°
2026-05-07 13:49 40.53184 22.89607 2172 ft 227 kts 250°
2026-05-07 13:49 40.52361 22.87731 2668 ft 250 kts 225°
2026-05-07 13:50 40.50861 22.86529 3464 ft 259 kts 195°
2026-05-07 13:50 40.49059 22.86512 4414 ft 265 kts 163°
2026-05-07 13:50 40.47396 22.87610 5425 ft 270 kts 150°
2026-05-07 13:50 40.45773 22.88895 6391 ft 275 kts 150°
2026-05-07 13:51 40.44124 22.90220 7277 ft 281 kts 150°
2026-05-07 13:51 40.42444 22.91577 8140 ft 287 kts 151°
2026-05-07 13:51 40.40725 22.92958 9037 ft 292 kts 152°
2026-05-07 13:51 40.38971 22.94356 9918 ft 298 kts 152°
2026-05-07 13:52 40.37158 22.95791 10502 ft 315 kts 153°
2026-05-07 13:52 40.35207 22.97324 10841 ft 339 kts 153°
2026-05-07 13:52 40.33112 22.98969 11151 ft 362 kts 152°
2026-05-07 13:52 40.30945 23.00678 11737 ft 372 kts 152°
2026-05-07 13:53 40.28712 23.02445 12497 ft 378 kts 152°
2026-05-07 13:53 40.26448 23.04236 13280 ft 383 kts 153°
2026-05-07 13:53 40.24151 23.06050 14010 ft 388 kts 153°
2026-05-07 13:53 40.21824 23.07885 14690 ft 392 kts 153°
2026-05-07 13:54 40.19478 23.09734 15378 ft 395 kts 153°
2026-05-07 13:54 40.17117 23.11592 16040 ft 398 kts 153°
2026-05-07 13:54 40.14731 23.13468 16712 ft 402 kts 153°
2026-05-07 13:54 40.12327 23.15353 17404 ft 405 kts 154°
2026-05-07 13:55 40.09786 23.16940 18082 ft 404 kts 163°
2026-05-07 13:55 40.07146 23.18246 18722 ft 408 kts 163°
2026-05-07 13:55 40.04482 23.19556 19307 ft 411 kts 163°
2026-05-07 13:55 40.01792 23.20874 19883 ft 415 kts 163°
2026-05-07 13:56 39.99078 23.22201 20433 ft 418 kts 163°
2026-05-07 13:56 39.96348 23.23540 20972 ft 422 kts 163°
2026-05-07 13:56 39.93589 23.24894 21493 ft 425 kts 164°
2026-05-07 13:56 39.90804 23.26262 21996 ft 429 kts 163°
2026-05-07 13:57 39.88006 23.27639 22486 ft 433 kts 163°
2026-05-07 13:57 39.85178 23.29035 22957 ft 436 kts 163°
2026-05-07 13:57 39.82359 23.30423 23401 ft 440 kts 163°
2026-05-07 13:57 39.79487 23.31831 23834 ft 443 kts 163°
2026-05-07 13:58 39.76591 23.33242 24226 ft 445 kts 163°
2026-05-07 13:58 39.73685 23.34657 24641 ft 447 kts 163°
2026-05-07 13:58 39.70760 23.36079 25049 ft 449 kts 163°
2026-05-07 13:58 39.67828 23.37506 25454 ft 451 kts 163°
2026-05-07 13:59 39.64888 23.38937 25858 ft 453 kts 163°
2026-05-07 13:59 39.61932 23.40375 26250 ft 455 kts 162°
2026-05-07 13:59 39.58965 23.41819 26633 ft 456 kts 162°
2026-05-07 13:59 39.55988 23.43270 26978 ft 458 kts 162°
2026-05-07 14:00 39.52992 23.44728 27275 ft 461 kts 162°
2026-05-07 14:00 39.49981 23.46191 27494 ft 465 kts 162°
2026-05-07 14:00 39.46929 23.47670 27615 ft 470 kts 162°
2026-05-07 14:00 39.43856 23.49158 27831 ft 472 kts 162°
2026-05-07 14:01 39.40785 23.50643 28255 ft 471 kts 162°
2026-05-07 14:01 39.37700 23.52131 28380 ft 475 kts 162°
2026-05-07 14:01 39.34595 23.53631 28509 ft 478 kts 162°
2026-05-07 14:01 39.31513 23.55120 28643 ft 480 kts 162°
2026-05-07 14:02 39.28381 23.56629 28839 ft 481 kts 162°
2026-05-07 14:02 39.25244 23.58139 29027 ft 481 kts 162°
2026-05-07 14:02 39.22107 23.59644 29085 ft 482 kts 162°
2026-05-07 14:03 39.15687 23.61939 29080 ft 477 kts 175°
2026-05-07 14:03 39.09091 23.62925 29092 ft 478 kts 176°
2026-05-07 14:04 39.02480 23.63900 29101 ft 479 kts 176°
2026-05-07 14:04 38.95844 23.64884 29110 ft 480 kts 177°
2026-05-07 14:05 38.89203 23.65867 29101 ft 481 kts 177°
2026-05-07 14:05 38.82553 23.66843 29095 ft 482 kts 177°
2026-05-07 14:06 38.75886 23.67818 29088 ft 483 kts 178°
2026-05-07 14:06 38.69247 23.68790 29083 ft 484 kts 178°
2026-05-07 14:07 38.62547 23.69772 28887 ft 484 kts 178°
2026-05-07 14:07 38.59206 23.70263 27665 ft 484 kts 178°
2026-05-07 14:07 38.55845 23.70752 26569 ft 488 kts 178°
2026-05-07 14:07 38.52461 23.71244 26265 ft 491 kts 178°
2026-05-07 14:08 38.49057 23.71740 26018 ft 493 kts 178°
2026-05-07 14:08 38.45641 23.72241 25771 ft 495 kts 178°
2026-05-07 14:08 38.42214 23.72743 25537 ft 496 kts 178°
2026-05-07 14:08 38.38781 23.73241 25289 ft 496 kts 178°
2026-05-07 14:09 38.35353 23.73736 25047 ft 496 kts 177°
2026-05-07 14:09 38.31925 23.74229 24812 ft 496 kts 177°
2026-05-07 14:09 38.28491 23.74724 24581 ft 495 kts 177°
2026-05-07 14:09 38.25071 23.75214 24349 ft 494 kts 177°
2026-05-07 14:10 38.21665 23.75731 24106 ft 493 kts 175°
2026-05-07 14:10 38.18363 23.76698 23894 ft 495 kts 166°
2026-05-07 14:10 38.15125 23.78359 23650 ft 496 kts 156°
2026-05-07 14:10 38.12205 23.80592 23386 ft 498 kts 148°
2026-05-07 14:11 38.09368 23.83110 23138 ft 496 kts 147°
2026-05-07 14:11 38.06547 23.85599 22871 ft 494 kts 148°
2026-05-07 14:11 38.03724 23.88077 22608 ft 492 kts 148°
2026-05-07 14:11 38.00921 23.90535 22346 ft 489 kts 148°
2026-05-07 14:12 37.98122 23.92986 22084 ft 488 kts 148°
2026-05-07 14:12 37.95340 23.95418 21828 ft 486 kts 148°
2026-05-07 14:12 37.92562 23.97845 21569 ft 484 kts 148°
2026-05-07 14:12 37.89811 24.00248 21311 ft 473 kts 148°
2026-05-07 14:13 37.87143 24.02581 20679 ft 463 kts 148°
2026-05-07 14:13 37.84499 24.04887 19866 ft 459 kts 148°
2026-05-07 14:13 37.81880 24.07167 19111 ft 455 kts 148°
2026-05-07 14:13 37.79288 24.09424 18382 ft 450 kts 148°
2026-05-07 14:14 37.76722 24.11661 17641 ft 445 kts 148°
2026-05-07 14:14 37.74197 24.13860 17144 ft 432 kts 148°
2026-05-07 14:14 37.71817 24.15939 16948 ft 402 kts 148°
2026-05-07 14:14 37.69567 24.17905 16294 ft 386 kts 148°
2026-05-07 14:15 37.67417 24.19774 15949 ft 366 kts 148°
2026-05-07 14:15 37.65351 24.21561 15321 ft 356 kts 147°
2026-05-07 14:15 37.63538 24.23676 14733 ft 358 kts 127°
2026-05-07 14:15 37.62464 24.26478 14362 ft 355 kts 104°
2026-05-07 14:16 37.62280 24.29545 14005 ft 350 kts 81°
2026-05-07 14:16 37.62716 24.32553 13585 ft 347 kts 76°
2026-05-07 14:16 37.63231 24.35519 13163 ft 345 kts 75°
2026-05-07 14:16 37.63754 24.38452 12761 ft 342 kts 75°
2026-05-07 14:17 37.64282 24.41363 12362 ft 339 kts 75°
2026-05-07 14:17 37.64892 24.44170 11968 ft 334 kts 65°
2026-05-07 14:17 37.66086 24.46630 11581 ft 326 kts 46°
2026-05-07 14:17 37.67818 24.48415 11180 ft 320 kts 27°
2026-05-07 14:18 37.69880 24.49361 10767 ft 314 kts
2026-05-07 14:18 37.72039 24.49414 10346 ft 310 kts 349°
2026-05-07 14:18 37.74072 24.48605 9906 ft 306 kts 332°
2026-05-07 14:18 37.75865 24.47169 9429 ft 304 kts 325°
2026-05-07 14:19 37.77590 24.45711 9297 ft 292 kts 325°
2026-05-07 14:19 37.79254 24.44306 9161 ft 285 kts 325°
2026-05-07 14:19 37.80901 24.42914 9037 ft 284 kts 325°
2026-05-07 14:19 37.82543 24.41528 8912 ft 284 kts 325°
2026-05-07 14:20 37.84184 24.40141 8784 ft 283 kts 325°
2026-05-07 14:20 37.85267 24.39224 8701 ft 283 kts 325°
2026-05-07 14:20 37.86904 24.37840 8569 ft 282 kts 325°
2026-05-07 14:20 37.88537 24.36460 8446 ft 282 kts 325°
2026-05-07 14:21 37.90165 24.35084 8323 ft 282 kts 325°
2026-05-07 14:21 37.91794 24.33707 8199 ft 281 kts 325°
2026-05-07 14:21 37.93417 24.32333 7999 ft 282 kts 324°
2026-05-07 14:21 37.95054 24.30943 7500 ft 283 kts 324°
2026-05-07 14:22 37.97246 24.29086 6923 ft 282 kts 324°
2026-05-07 14:22 37.98835 24.27740 6349 ft 278 kts 324°
2026-05-07 14:22 38.00439 24.26377 5621 ft 277 kts 324°
2026-05-07 14:22 38.01515 24.25462 5199 ft 275 kts 324°
2026-05-07 14:23 38.03088 24.24124 4769 ft 266 kts 324°
2026-05-07 14:23 38.04566 24.22867 4704 ft 243 kts 323°
2026-05-07 14:23 38.05778 24.21535 4647 ft 223 kts 309°
2026-05-07 14:23 38.06665 24.19975 4445 ft 217 kts 295°
2026-05-07 14:24 38.07347 24.18277 4344 ft 217 kts 294°
2026-05-07 14:24 38.08034 24.16575 4310 ft 216 kts 294°
2026-05-07 14:24 38.08723 24.14882 4253 ft 215 kts 294°
2026-05-07 14:24 38.09387 24.13193 4195 ft 208 kts 287°
2026-05-07 14:25 38.09532 24.11465 3943 ft 192 kts 256°
2026-05-07 14:25 38.08875 24.10082 3669 ft 184 kts 218°
2026-05-07 14:25 38.07851 24.09105 3432 ft 184 kts 217°
2026-05-07 14:25 38.06828 24.08130 3203 ft 180 kts 217°
2026-05-07 14:26 38.05855 24.07201 2969 ft 171 kts 217°
2026-05-07 14:26 38.04935 24.06322 2737 ft 159 kts 217°
2026-05-07 14:26 38.04090 24.05514 2526 ft 150 kts 216°
2026-05-07 14:26 38.03271 24.04732 2343 ft 146 kts 216°
2026-05-07 14:27 38.02475 24.03972 2143 ft 139 kts 215°
2026-05-07 14:27 38.01721 24.03252 1974 ft 133 kts 215°
2026-05-07 14:27 38.00992 24.02556 1822 ft 129 kts 215°
2026-05-07 14:27 38.00271 24.01868 1639 ft 128 kts 215°
2026-05-07 14:28 37.99545 24.01181 1484 ft 131 kts 214°
2026-05-07 14:28 37.98810 24.00479 1244 ft 132 kts 215°
2026-05-07 14:28 37.98097 23.99785 1100 ft 130 kts 214°
2026-05-07 14:28 37.97380 23.99102 876 ft 126 kts 218°
2026-05-07 14:29 37.96671 23.98427 720 ft 129 kts 216°
2026-05-07 14:29 37.95964 23.97755 524 ft 128 kts 218°
2026-05-07 14:29 37.95259 23.97087 389 ft 126 kts 218°
2026-05-07 14:29 37.94582 23.96430 308 ft 113 kts 218°